User: anonymous   Login
Location: Unspecified
(0.0000°N, 0.0000°E)
Time: 21:54:25
(UTC+00:00)
Language:

A-11 Canister half - Orbit

View from above orbital plane
View from above orbital plane
View from above satellite
View from above satellite

Ground track
Ground track

The orbit data is extracted from the following two-line orbital elements,

1    53U 60009E   16180.71201927 -.00000086 +00000-0 +00000-0 0  9993
2    53 047.2774 049.5109 0098615 116.6575 244.4353 12.17187693491980
Epoch (UTC): 28 June 2016 17:05:18
Eccentricity: 0.0098615
inclination: 47.2774°
perigee height: 1526 km
apogee height: 1683 km
right ascension of ascending node: 49.5109°
argument of perigee: 116.6575°
revolutions per day: 12.17187693
mean anomaly at epoch: 244.4353°
orbit number at epoch: 49198

The dashed part of the orbit path shows where the satellite is in the earth's shadow,  

DLR